DW0805 Weather Reports


time (UTC)temp
F
wind
direction
speed
knots
gust
knots
rain 1hr
in
rain 24hr
in
rain mn
in
humidity
%
barometer
mb
20260505230512 41 3 0.9 2.6 0.00 0.00 0.00 87 1011.1
20260505225512 41 22 0.9 2.6 0.00 0.00 0.00 87 1011.1
20260505221509 41 5 0.9 4.3 0.00 0.00 0.00 88 1011.2
20260505214514 40 9 0.9 2.6 0.00 0.00 0.00 88 1011.3
20260505213512 40 5 0.9 2.6 0.00 0.00 0.00 87 1011.3
20260505210513 40 349 0.9 1.7 0.00 0.00 0.00 84 1011.5
20260505205512 41 349 0.9 1.7 0.00 0.00 0.00 83 1011.4
20260505203513 42 349 0.0 1.7 0.00 0.00 0.00 82 1011.4
20260505201513 43 349 0.0 0.9 0.00 0.00 0.00 80 1011.4
20260505195513 44 349 0.0 1.7 0.00 0.00 0.00 78 1011.5
20260505194513 44 349 0.9 4.3 0.00 0.00 0.00 76 1011.5
20260505190513 47 355 0.0 0.9 0.00 0.00 0.00 70 1011.4
20260505183513 49 350 0.9 4.3 0.00 0.00 0.00 65 1011.1
20260505182513 50 355 1.7 4.3 0.00 0.00 0.00 63 1011.1
20260505174513 52 18 2.6 7.0 0.00 0.00 0.00 53 1011.1
20260505172513 53 356 3.5 7.8 0.00 0.00 0.00 54 1011.1
20260505171514 54 15 2.6 7.8 0.00 0.00 0.00 53 1011.2
20260505161513 55 23 4.3 8.7 0.00 0.00 0.00 57 1011.2
20260505160513 56 7 5.2 10.4 0.00 0.00 0.00 58 1011.3
20260505152514 57 0 5.2 11.3 0.00 0.00 0.00 56 1011.4
20260505140513 57 346 5.2 13.0 0.00 0.00 0.00 62 1011.4
20260505124514 57 331 5.2 8.7 0.00 0.00 0.00 61 1011.5
20260505120513 56 303 5.2 12.2 0.00 0.00 0.00 65 1011.6
20260505115513 56 331 6.1 11.3 0.00 0.00 0.00 63 1011.6
20260505114513 56 350 5.2 10.4 0.00 0.00 0.00 65 1011.7
20260505113512 57 349 5.2 12.2 0.00 0.00 0.00 63 1011.7
20260505112513 56 347 5.2 13.0 0.00 0.00 0.00 64 1011.5
20260505101514 55 356 5.2 10.4 0.00 0.00 0.00 71 1011.8
20260505095514 55 305 6.1 8.7 0.00 0.00 0.00 72 1011.8
20260505094513 55 347 5.2 11.3 0.00 0.00 0.00 73 1011.8
20260505091513 55 304 5.2 12.2 0.00 0.00 0.00 69 1011.7
20260505085514 54 2 2.6 10.4 0.00 0.00 0.00 72 1011.7
20260505081515 53 334 4.3 10.4 0.00 0.01 0.00 74 1011.6
20260505075513 54 311 4.3 8.7 0.00 0.01 0.00 75 1011.4
20260505073513 53 333 5.2 12.2 0.00 0.01 0.00 78 1011.4
20260505071513 50 338 7.0 10.4 0.00 0.01 0.00 80 1011.4
20260505065513 51 356 4.3 8.7 0.00 0.01 0.00 83 1011.3
20260505064513 50 322 4.3 12.2 0.00 0.01 0.00 81 1011.3
20260505063513 51 309 5.2 13.0 0.00 0.01 0.00 81 1011.2
20260505062513 50 307 6.1 8.7 0.00 0.01 0.00 80 1011.3
20260505055513 50 318 5.2 10.4 0.00 0.01 0.00 81 1011.2
20260505054513 49 289 5.2 11.3 0.00 0.01 0.00 82 1011.3
20260505053513 49 310 5.2 11.3 0.00 0.01 0.00 83 1011.2
20260505052514 48 342 5.2 10.4 0.00 0.01 0.00 85 1011.2
20260505041513 47 308 1.7 7.0 0.00 0.01 0.00 88 1011.1
20260505040512 46 337 2.6 5.2 0.00 0.01 0.00 88 1011.0
20260505035513 46 319 2.6 5.2 0.00 0.01 0.00 88 1011.0
20260505030513 46 299 4.3 7.8 0.00 0.01 0.00 88 1010.8
20260505025513 46 296 4.3 7.8 0.00 0.01 0.00 88 1010.9
20260505024513 46 279 2.6 7.0 0.00 0.01 0.00 88 1010.9
20260505015513 46 326 3.5 7.8 0.00 0.02 0.00 87 1011.2
20260505013514 46 290 2.6 6.1 0.00 0.02 0.00 87 1011.2
20260505012515 46 313 3.5 7.0 0.00 0.02 0.00 87 1011.3
20260505011514 46 313 2.6 7.0 0.00 0.02 0.00 87 1011.4
20260505005514 46 302 2.6 7.8 0.00 0.02 0.00 87 1011.4
20260505004514 46 307 5.2 7.8 0.00 0.02 0.00 87 1011.4
20260505003513 46 296 3.5 7.8 0.00 0.02 0.00 87 1011.5
20260505002513 46 296 3.5 7.8 0.00 0.02 0.00 87 1011.5
20260505001513 46 292 3.5 10.4 0.00 0.02 0.00 87 1011.5
20260504235514 46 302 4.3 7.8 0.00 0.02 0.00 87 1011.4
20260504234514 46 304 2.6 7.0 0.00 0.02 0.00 87 1011.4
20260504231513 47 314 3.5 7.8 0.00 0.03 0.00 87 1011.4